EIN893 LPFR-EICK

Flight info

Callsign EIN893
Flight time N/A
Altitude 36000
Route ODEMI DCT COCUN DCT RIPEL DCT ADVAT/M078F350 T290 GELPO DCT JABEX/N0444F350 DCT BIBLA DCT SOVIX SOVIX1R
Aircraft A320/M-SDE3FGHIRWY/LB1

Departure

Time N/A
Airport Faro - Gago Coutinho International Airport (LPFR)

Arrival

Time 2026-05-06 08:26
Airport Cork International Airport (EICK)
Time Latitude Longitude Altitude Speed Heading
2026-05-06 07:00 42.95946 -10.49295 36101 ft 448 kts 17°
2026-05-06 07:01 43.01815 -10.46444 36099 ft 448 kts 17°
2026-05-06 07:01 43.07686 -10.43598 36094 ft 447 kts 17°
2026-05-06 07:02 43.13553 -10.40751 36091 ft 447 kts 17°
2026-05-06 07:02 43.19417 -10.37901 36101 ft 447 kts 17°
2026-05-06 07:03 43.25281 -10.35042 36095 ft 448 kts 17°
2026-05-06 07:03 43.31165 -10.32164 36104 ft 449 kts 17°
2026-05-06 07:04 43.37045 -10.29286 36113 ft 448 kts 17°
2026-05-06 07:04 43.42878 -10.26423 36105 ft 448 kts 17°
2026-05-06 07:05 43.48741 -10.23534 36103 ft 448 kts 18°
2026-05-06 07:05 43.54601 -10.20633 36098 ft 447 kts 17°
2026-05-06 07:06 43.60461 -10.17746 36105 ft 447 kts 17°
2026-05-06 07:06 43.66312 -10.14849 36103 ft 447 kts 18°
2026-05-06 07:07 43.72161 -10.11951 36098 ft 446 kts 17°
2026-05-06 07:07 43.78009 -10.09043 36103 ft 446 kts 18°
2026-05-06 07:08 43.83852 -10.06129 36096 ft 446 kts 18°
2026-05-06 07:08 43.89691 -10.03209 36092 ft 446 kts 18°
2026-05-06 07:09 43.95531 -10.00279 36090 ft 446 kts 18°
2026-05-06 07:09 44.01374 -9.97363 36092 ft 446 kts 18°
2026-05-06 07:10 44.07216 -9.94436 36090 ft 446 kts 18°
2026-05-06 07:10 44.13052 -9.91496 36089 ft 446 kts 18°
2026-05-06 07:11 44.18888 -9.88552 36096 ft 446 kts 18°
2026-05-06 07:11 44.24721 -9.85597 36094 ft 446 kts 18°
2026-05-06 07:12 44.30552 -9.82644 36095 ft 446 kts 18°
2026-05-06 07:12 44.36380 -9.79691 36096 ft 445 kts 18°
2026-05-06 07:13 44.42197 -9.76733 36095 ft 445 kts 18°
2026-05-06 07:13 44.48010 -9.73768 36093 ft 445 kts 18°
2026-05-06 07:14 44.52841 -9.71297 36089 ft 444 kts 18°
2026-05-06 07:14 44.58651 -9.68329 36098 ft 444 kts 18°
2026-05-06 07:15 44.64456 -9.65343 36094 ft 444 kts 18°
2026-05-06 07:15 44.70260 -9.62352 36091 ft 444 kts 18°
2026-05-06 07:16 44.76064 -9.59364 36089 ft 444 kts 18°
2026-05-06 07:16 44.81870 -9.56376 36091 ft 444 kts 18°
2026-05-06 07:17 44.87672 -9.53382 36097 ft 444 kts 18°
2026-05-06 07:17 44.93468 -9.50375 36097 ft 444 kts 18°
2026-05-06 07:18 44.99306 -9.47622 36100 ft 441 kts
2026-05-06 07:18 45.05373 -9.47014 36091 ft 437 kts 358°
2026-05-06 07:19 45.11457 -9.47082 36089 ft 437 kts 358°
2026-05-06 07:19 45.17539 -9.47144 36081 ft 437 kts 358°
2026-05-06 07:20 45.23620 -9.47191 36088 ft 437 kts 358°
2026-05-06 07:20 45.29624 -9.47231 36049 ft 426 kts 358°
2026-05-06 07:21 45.35568 -9.47281 36087 ft 435 kts 358°
2026-05-06 07:21 45.41646 -9.47325 36083 ft 438 kts 358°
2026-05-06 07:22 45.47739 -9.47379 36084 ft 438 kts 358°
2026-05-06 07:22 45.53838 -9.47431 36084 ft 438 kts 358°
2026-05-06 07:23 45.59943 -9.47489 36085 ft 438 kts 358°
2026-05-06 07:23 45.66043 -9.47548 36082 ft 439 kts 358°
2026-05-06 07:24 45.72150 -9.47596 36084 ft 439 kts 358°
2026-05-06 07:24 45.78256 -9.47645 36088 ft 439 kts 358°
2026-05-06 07:25 45.84364 -9.47695 36091 ft 439 kts 358°
2026-05-06 07:25 45.90469 -9.47756 36092 ft 439 kts 358°
2026-05-06 07:26 45.96572 -9.47811 36091 ft 438 kts 358°
2026-05-06 07:26 46.02672 -9.47862 36092 ft 438 kts 358°
2026-05-06 07:27 46.08723 -9.47910 36088 ft 435 kts 358°
2026-05-06 07:27 46.14832 -9.47968 36088 ft 443 kts 358°
2026-05-06 07:28 46.21044 -9.48022 36090 ft 449 kts 358°
2026-05-06 07:28 46.30492 -9.48100 36085 ft 455 kts 358°
2026-05-06 07:29 46.36849 -9.48162 36082 ft 458 kts 358°
2026-05-06 07:29 46.43233 -9.48224 36081 ft 460 kts 358°
2026-05-06 07:30 46.49640 -9.48274 36082 ft 461 kts 358°
2026-05-06 07:30 46.56058 -9.48334 36081 ft 462 kts 358°
2026-05-06 07:31 46.62491 -9.48391 36084 ft 462 kts 358°
2026-05-06 07:31 46.68931 -9.48454 36084 ft 463 kts 358°
2026-05-06 07:32 46.75380 -9.48518 36087 ft 464 kts 358°
2026-05-06 07:32 46.81841 -9.48567 36076 ft 465 kts 358°
2026-05-06 07:33 46.88313 -9.48610 36084 ft 465 kts 358°
2026-05-06 07:33 46.94792 -9.48671 36077 ft 466 kts 358°
2026-05-06 07:34 47.01280 -9.48742 36079 ft 467 kts 358°
2026-05-06 07:34 47.07779 -9.48807 36081 ft 467 kts 358°
2026-05-06 07:35 47.14286 -9.48870 36080 ft 468 kts 358°
2026-05-06 07:35 47.20800 -9.48922 36081 ft 468 kts 358°
2026-05-06 07:36 47.27328 -9.48968 36080 ft 469 kts 358°
2026-05-06 07:36 47.33854 -9.49033 36077 ft 469 kts 358°
2026-05-06 07:37 47.40370 -9.49093 36076 ft 464 kts 358°
2026-05-06 07:37 47.43541 -9.49119 36070 ft 449 kts 358°
2026-05-06 07:37 47.46641 -9.49147 36073 ft 443 kts 358°
2026-05-06 07:38 47.52789 -9.49211 36076 ft 441 kts 358°
2026-05-06 07:38 47.58919 -9.49272 36076 ft 440 kts 358°
2026-05-06 07:39 47.65045 -9.49330 36076 ft 440 kts 358°
2026-05-06 07:39 47.71176 -9.49384 36074 ft 441 kts 358°
2026-05-06 07:40 47.77308 -9.49439 36075 ft 441 kts 358°
2026-05-06 07:40 47.83444 -9.49499 36085 ft 441 kts 358°
2026-05-06 07:41 47.89578 -9.49561 36083 ft 441 kts 358°
2026-05-06 07:41 47.95715 -9.49610 36079 ft 441 kts 358°
2026-05-06 07:42 48.01855 -9.49662 36073 ft 441 kts 358°
2026-05-06 07:42 48.07990 -9.49719 36076 ft 441 kts 358°
2026-05-06 07:43 48.14128 -9.49775 36072 ft 441 kts 358°
2026-05-06 07:43 48.20269 -9.49840 36072 ft 441 kts 358°
2026-05-06 07:44 48.26411 -9.49901 36080 ft 441 kts 358°
2026-05-06 07:44 48.32552 -9.49958 36076 ft 441 kts 358°
2026-05-06 07:45 48.38696 -9.50008 36071 ft 441 kts 358°
2026-05-06 07:45 48.44839 -9.50072 36073 ft 442 kts 358°
2026-05-06 07:46 48.50986 -9.50141 36073 ft 442 kts 358°
2026-05-06 07:46 48.57130 -9.50201 36076 ft 442 kts 358°
2026-05-06 07:47 48.63278 -9.50258 36075 ft 442 kts 358°
2026-05-06 07:47 48.69021 -9.50284 36081 ft 443 kts 358°
2026-05-06 07:48 48.75207 -9.50266 36089 ft 445 kts 358°
2026-05-06 07:48 48.81429 -9.50251 36087 ft 444 kts 358°
2026-05-06 07:49 48.87554 -9.50258 36091 ft 443 kts 358°
2026-05-06 07:49 48.93753 -9.50262 36089 ft 442 kts 358°
2026-05-06 07:50 48.99909 -9.50158 36083 ft 443 kts
2026-05-06 07:50 49.06004 -9.48665 36075 ft 444 kts
2026-05-06 07:51 49.12088 -9.47039 36070 ft 444 kts
2026-05-06 07:51 49.18172 -9.45408 36069 ft 444 kts
2026-05-06 07:52 49.24266 -9.43785 36067 ft 445 kts
2026-05-06 07:52 49.30361 -9.42156 36068 ft 445 kts
2026-05-06 07:53 49.36460 -9.40518 36078 ft 445 kts
2026-05-06 07:53 49.42560 -9.38865 36073 ft 445 kts
2026-05-06 07:54 49.48665 -9.37208 36069 ft 446 kts
2026-05-06 07:54 49.54771 -9.35571 36062 ft 445 kts
2026-05-06 07:55 49.60871 -9.33918 36068 ft 445 kts
2026-05-06 07:55 49.66975 -9.32257 36059 ft 445 kts
2026-05-06 07:56 49.73080 -9.30576 36055 ft 446 kts
2026-05-06 07:56 49.78157 -9.29186 36068 ft 446 kts
2026-05-06 07:57 49.84308 -9.27496 36075 ft 446 kts
2026-05-06 07:57 49.90387 -9.25831 36066 ft 446 kts
2026-05-06 07:58 49.96502 -9.24151 36059 ft 446 kts
2026-05-06 07:58 50.02616 -9.22449 36064 ft 446 kts
2026-05-06 07:59 50.08734 -9.20760 36073 ft 446 kts
2026-05-06 07:59 50.14836 -9.19084 36065 ft 446 kts
2026-05-06 08:00 50.20945 -9.17378 36061 ft 446 kts
2026-05-06 08:00 50.27052 -9.15658 36059 ft 446 kts
2026-05-06 08:01 50.33164 -9.13946 36063 ft 446 kts
2026-05-06 08:01 50.39276 -9.12241 36062 ft 446 kts
2026-05-06 08:02 50.45389 -9.10524 36057 ft 446 kts
2026-05-06 08:02 50.51503 -9.08795 36059 ft 446 kts
2026-05-06 08:03 50.57614 -9.07052 36016 ft 446 kts
2026-05-06 08:03 50.60683 -9.06171 35047 ft 453 kts
2026-05-06 08:03 50.63815 -9.05279 33938 ft 461 kts
2026-05-06 08:04 50.66980 -9.04380 32949 ft 461 kts
2026-05-06 08:04 50.70132 -9.03486 32010 ft 461 kts
2026-05-06 08:04 50.73295 -9.02586 31113 ft 461 kts
2026-05-06 08:04 50.76422 -9.01694 30593 ft 453 kts
2026-05-06 08:05 50.79507 -9.00814 29938 ft 449 kts
2026-05-06 08:05 50.82564 -8.99937 29294 ft 443 kts
2026-05-06 08:05 50.85575 -8.99070 28699 ft 437 kts
2026-05-06 08:05 50.88546 -8.98217 28110 ft 431 kts
2026-05-06 08:06 50.91483 -8.97376 27541 ft 427 kts
2026-05-06 08:06 50.94393 -8.96540 26948 ft 422 kts
2026-05-06 08:06 50.97268 -8.95711 26383 ft 418 kts
2026-05-06 08:06 51.00118 -8.94889 25833 ft 415 kts
2026-05-06 08:07 51.02946 -8.94073 25280 ft 411 kts
2026-05-06 08:07 51.05750 -8.93264 24747 ft 407 kts
2026-05-06 08:07 51.08525 -8.92463 24224 ft 404 kts
2026-05-06 08:07 51.11271 -8.91587 23724 ft 402 kts 13°
2026-05-06 08:08 51.13893 -8.90055 23171 ft 401 kts 24°
2026-05-06 08:08 51.16284 -8.87809 22688 ft 399 kts 34°
2026-05-06 08:08 51.18499 -8.85184 22213 ft 395 kts 35°
2026-05-06 08:08 51.20691 -8.82583 21749 ft 392 kts 35°
2026-05-06 08:09 51.22872 -8.80000 21270 ft 389 kts 35°
2026-05-06 08:09 51.25033 -8.77440 20807 ft 385 kts 35°
2026-05-06 08:09 51.27176 -8.74895 20323 ft 383 kts 35°
2026-05-06 08:09 51.29303 -8.72361 19831 ft 380 kts 35°
2026-05-06 08:10 51.31417 -8.69838 19364 ft 378 kts 35°
2026-05-06 08:10 51.33522 -8.67320 18865 ft 377 kts 35°
2026-05-06 08:10 51.35615 -8.64813 18380 ft 376 kts 35°
2026-05-06 08:10 51.37704 -8.62309 17836 ft 374 kts 36°
2026-05-06 08:11 51.39843 -8.59989 17345 ft 369 kts 26°
2026-05-06 08:11 51.42206 -8.58467 16873 ft 364 kts 13°
2026-05-06 08:11 51.44687 -8.57838 16402 ft 360 kts
2026-05-06 08:11 51.47165 -8.58100 15934 ft 355 kts 348°
2026-05-06 08:12 51.49558 -8.59023 15485 ft 353 kts 344°
2026-05-06 08:12 51.51931 -8.59992 15036 ft 350 kts 345°
2026-05-06 08:12 51.54285 -8.60951 14572 ft 348 kts 345°
2026-05-06 08:12 51.56630 -8.61908 14115 ft 347 kts 345°
2026-05-06 08:13 51.58968 -8.62864 13643 ft 345 kts 345°
2026-05-06 08:13 51.61287 -8.63818 13160 ft 343 kts 345°
2026-05-06 08:13 51.63589 -8.64771 12699 ft 340 kts 345°
2026-05-06 08:13 51.65871 -8.65714 12226 ft 338 kts 345°
2026-05-06 08:14 51.68141 -8.66649 11763 ft 335 kts 345°
2026-05-06 08:14 51.70391 -8.67574 11295 ft 333 kts 345°
2026-05-06 08:14 51.72629 -8.68490 10824 ft 331 kts 345°
2026-05-06 08:14 51.74851 -8.69399 10460 ft 326 kts 345°
2026-05-06 08:15 51.77001 -8.70282 10334 ft 313 kts 345°
2026-05-06 08:15 51.79071 -8.71133 10206 ft 301 kts 346°
2026-05-06 08:15 51.81075 -8.71897 10034 ft 292 kts 347°
2026-05-06 08:15 51.83045 -8.72599 9837 ft 288 kts 347°
2026-05-06 08:16 51.84997 -8.73278 9497 ft 286 kts 347°
2026-05-06 08:16 51.86917 -8.73943 9117 ft 276 kts 347°
2026-05-06 08:16 51.88753 -8.74578 8772 ft 266 kts 347°
2026-05-06 08:16 51.90556 -8.75209 8416 ft 265 kts 346°
2026-05-06 08:17 51.92354 -8.75849 8061 ft 264 kts 347°
2026-05-06 08:17 51.94145 -8.76492 7707 ft 263 kts 346°
2026-05-06 08:17 51.95926 -8.77129 7361 ft 261 kts 346°
2026-05-06 08:17 51.97693 -8.77761 7014 ft 259 kts 346°
2026-05-06 08:18 51.99442 -8.78391 6673 ft 257 kts 346°
2026-05-06 08:18 52.01186 -8.78836 6419 ft 251 kts
2026-05-06 08:18 52.02810 -8.78020 6206 ft 242 kts 34°
2026-05-06 08:18 52.03940 -8.76130 6008 ft 227 kts 52°
2026-05-06 08:19 52.04871 -8.74156 5813 ft 215 kts 51°
2026-05-06 08:19 52.05775 -8.72246 5637 ft 211 kts 51°
2026-05-06 08:19 52.06668 -8.70362 5456 ft 210 kts 51°
2026-05-06 08:19 52.07549 -8.68488 5242 ft 207 kts 56°
2026-05-06 08:20 52.08017 -8.66312 5063 ft 206 kts 88°
2026-05-06 08:20 52.07680 -8.64078 4872 ft 207 kts 122°
2026-05-06 08:20 52.06636 -8.62519 4694 ft 207 kts 156°
2026-05-06 08:20 52.05291 -8.61681 4507 ft 207 kts 160°
2026-05-06 08:21 52.03935 -8.60886 4393 ft 206 kts 160°
2026-05-06 08:21 52.02590 -8.60088 4257 ft 203 kts 160°
2026-05-06 08:21 52.01301 -8.59319 3966 ft 191 kts 159°
2026-05-06 08:21 52.00106 -8.58607 3735 ft 175 kts 159°
2026-05-06 08:22 51.99020 -8.57959 3507 ft 160 kts 159°
2026-05-06 08:22 51.98000 -8.57351 3295 ft 154 kts 159°
2026-05-06 08:22 51.97006 -8.56759 3083 ft 151 kts 158°
2026-05-06 08:22 51.96022 -8.56173 2875 ft 150 kts 158°
2026-05-06 08:23 51.95046 -8.55592 2667 ft 150 kts 158°
2026-05-06 08:23 51.94072 -8.55013 2471 ft 149 kts 158°
2026-05-06 08:23 51.93102 -8.54436 2263 ft 148 kts 158°
2026-05-06 08:23 51.92138 -8.53863 2060 ft 147 kts 158°
2026-05-06 08:24 51.91181 -8.53297 1862 ft 146 kts 157°
2026-05-06 08:24 51.90230 -8.52732 1673 ft 145 kts 158°
2026-05-06 08:24 51.89281 -8.52167 1460 ft 145 kts 157°
2026-05-06 08:24 51.88331 -8.51604 1272 ft 146 kts 158°
2026-05-06 08:25 51.87376 -8.51036 1057 ft 146 kts 159°
2026-05-06 08:25 51.86416 -8.50474 845 ft 146 kts 160°
2026-05-06 08:25 51.85461 -8.49908 648 ft 146 kts 159°
2026-05-06 08:25 51.84526 -8.49345 504 ft 130 kts 159°
2026-05-06 08:26 51.83962 -8.49010 504 ft 52 kts 160°
2026-05-06 08:26 51.83665 -8.48832 504 ft 37 kts 160°
2026-05-06 08:26 51.83425 -8.48694 504 ft 37 kts 164°
2026-05-06 08:26 51.83303 -8.48601 504 ft 13 kts 127°
2026-05-06 08:27 51.83251 -8.48551 504 ft 9 kts 236°
2026-05-06 08:27 51.83284 -8.48611 504 ft 9 kts 340°
2026-05-06 08:27 51.83423 -8.48691 504 ft 35 kts 340°
2026-05-06 08:27 51.83692 -8.48852 504 ft 43 kts 340°
2026-05-06 08:28 51.83965 -8.49014 504 ft 41 kts 340°
2026-05-06 08:28 51.84223 -8.49165 504 ft 38 kts 340°
2026-05-06 08:28 51.84468 -8.49309 504 ft 37 kts 340°
2026-05-06 08:28 51.84674 -8.49429 504 ft 20 kts 340°
2026-05-06 08:29 51.84746 -8.49466 504 ft 8 kts
2026-05-06 08:29 51.84777 -8.49397 504 ft 7 kts 69°
2026-05-06 08:29 51.84794 -8.49328 504 ft 7 kts 70°
2026-05-06 08:29 51.84815 -8.49192 504 ft 8 kts 77°
2026-05-06 08:30 51.84830 -8.49117 504 ft 6 kts 70°
2026-05-06 08:30 51.84843 -8.49059 504 ft 1 kts 70°